Wind_Speed
27 27 27 26 26 26 26 25 25 25 24 24 23 23 22 22 21 20 20 19 19 18 18 18 18 18 19 19 20 21 20 18 17 17 16 16 16 15 14 14 14 14 14 14 15 15 16 16 17 16 16 15 11 5 13 21 23 24 27 31 33 33 31 28 27 27 29 32 33 34 35 34 33 34 35 34 32 31 31 30 30 29 28 27 26 25 25 26
29 29 29 28 28 28 28 28 27 27 27 26 26 25 25 24 24 23 22 22 21 21 20 19 19 19 20 20 21 22 22 20 19 18 17 16 16 16 15 14 13 14 14 14 15 15 15 16 16 17 17 17 16 11 5 16 24 27 27 31 33 33 31 28 26 26 26 28 31 31 32 32 33 34 35 35 33 32 30 30 29 28 27 26 26 24 23 24
31 31 31 31 31 31 31 30 30 30 30 29 29 28 28 27 26 26 25 24 23 23 22 21 20 20 20 20 21 22 23 23 20 19 19 16 16 17 17 16 14 14 14 15 15 15 15 15 16 17 18 18 18 16 11 7 19 28 31 32 31 29 29 28 26 26 27 28 29 29 29 28 29 30 32 33 32 31 30 30 29 28 27 27 26 25 24 24
33 33 33 34 33 33 33 33 33 33 32 32 32 31 31 30 29 28 28 27 26 25 24 24 23 21 21 20 21 22 24 25 21 20 20 18 17 17 18 18 16 15 15 15 15 15 15 15 15 16 17 18 19 18 16 11 9 22 31 32 30 27 28 28 26 24 24 26 26 25 26 26 25 25 27 29 29 28 29 29 28 28 27 27 27 26 25 25
36 36 36 36 37 36 36 36 36 35 35 35 35 34 34 33 32 31 30 29 28 27 26 25 25 23 22 21 22 22 26 27 22 21 23 21 19 18 18 19 18 17 17 16 16 15 16 16 15 15 16 17 18 19 18 15 10 10 24 31 30 28 28 26 24 23 22 22 22 22 23 24 22 21 21 24 25 25 25 27 27 27 26 26 26 26 25 24
39 39 39 39 39 39 39 39 39 38 38 37 37 36 36 35 35 34 33 31 30 28 27 26 25 25 24 23 23 23 26 29 25 24 25 24 23 21 19 19 19 19 19 18 18 17 16 16 16 16 16 16 17 18 19 17 14 9 13 26 30 30 29 25 23 23 24 22 20 19 20 20 20 19 18 20 21 22 22 24 25 25 25 25 25 25 24 22
41 41 41 42 42 42 41 41 41 40 40 39 38 38 37 37 36 35 34 33 32 30 28 27 26 25 24 23 23 24 26 30 29 26 26 25 25 24 22 20 20 20 20 20 20 19 17 17 17 16 16 16 16 17 18 17 15 13 7 14 26 30 28 25 22 21 21 21 20 19 18 17 17 17 17 17 17 18 20 21 22 22 23 23 23 23 22 20
43 43 43 43 43 43 42 42 42 41 41 40 39 38 38 37 36 35 35 34 33 32 30 29 27 26 25 24 23 23 25 29 30 27 27 27 26 26 25 23 21 21 21 21 21 20 19 18 18 17 16 16 16 16 17 17 16 14 11 6 11 21 26 24 21 19 18 18 18 17 16 16 15 15 15 15 15 16 17 18 19 20 20 21 21 21 20 17
44 44 44 44 44 44 43 43 43 43 42 41 40 40 39 39 38 37 37 36 35 34 34 32 31 29 28 27 26 25 25 27 30 28 28 28 27 26 27 26 24 22 21 22 22 21 21 20 19 19 18 17 16 16 15 16 16 15 12 10 6 7 15 18 17 16 16 15 15 16 16 15 14 13 12 13 13 14 15 16 17 18 18 19 18 17 16 13
46 46 46 46 46 46 46 46 46 46 45 45 44 44 43 43 42 41 41 40 39 39 38 37 36 34 33 31 30 29 27 27 29 30 29 28 28 26 27 28 27 24 22 22 22 22 21 22 21 20 19 18 17 16 15 14 15 15 14 12 9 6 6 11 14 14 13 13 14 16 17 15 11 10 9 10 11 11 13 14 15 15 16 17 15 13 12 10
48 48 48 48 49 49 49 49 48 48 48 48 48 47 47 47 46 46 45 45 44 43 42 41 40 39 38 36 35 33 31 30 30 30 31 31 30 28 28 28 28 27 25 23 22 22 22 22 22 21 21 20 19 18 16 15 14 14 14 13 11 8 7 7 11 14 13 12 13 15 16 13 9 8 8 9 9 10 12 13 14 15 15 15 14 12 10 10
49 49 50 50 50 50 50 50 50 50 50 50 50 50 49 49 48 48 48 47 47 46 46 45 45 44 43 41 40 38 36 35 33 32 32 33 33 30 29 29 28 29 28 25 23 22 22 22 22 22 22 21 20 19 18 16 14 14 13 13 12 10 8 6 7 11 12 12 12 13 13 11 9 7 7 9 9 10 12 14 15 14 14 14 14 13 11 10
51 51 51 52 52 52 53 53 53 53 53 53 52 52 52 51 51 50 49 49 48 48 47 47 47 47 46 45 45 43 41 40 38 36 35 35 35 34 32 31 29 30 31 29 25 23 23 23 22 23 23 22 22 21 19 18 15 14 13 13 12 11 9 8 7 7 9 10 11 11 11 10 9 7 8 8 9 10 12 13 14 14 13 13 14 13 11 10
53 54 54 55 55 55 56 56 56 56 56 56 56 56 55 55 54 54 53 52 52 50 49 49 48 48 48 47 48 46 45 44 42 41 39 38 38 37 36 34 32 31 32 31 29 25 23 23 22 23 23 22 22 22 20 19 17 15 13 13 13 12 10 9 8 7 7 9 10 10 10 9 8 8 8 8 8 9 10 12 14 13 12 13 14 13 12 10
55 56 56 56 56 56 56 56 56 56 56 56 56 56 57 57 57 57 56 56 56 55 53 52 51 51 50 49 49 49 48 47 46 45 43 42 40 40 39 37 35 34 34 33 32 28 25 24 23 23 23 22 23 23 22 21 19 16 14 12 12 12 11 9 8 7 7 7 8 10 9 9 8 8 9 9 9 9 10 12 14 13 12 13 14 14 12 10
55 54 54 54 53 53 52 52 52 52 52 52 52 52 53 53 54 55 55 55 56 56 55 55 55 55 54 52 51 51 50 48 48 48 47 46 44 43 42 41 39 37 36 36 34 31 27 26 25 24 22 23 24 24 23 22 19 17 16 13 12 11 11 10 9 7 6 7 7 8 9 9 8 8 9 10 9 10 12 13 14 13 13 13 14 14 12 9
52 51 50 49 48 47 46 45 45 45 44 44 44 44 44 45 46 47 48 49 50 51 52 53 54 55 55 56 54 54 54 52 50 50 49 48 48 47 46 45 43 40 39 38 36 35 32 29 27 25 23 23 25 25 26 23 19 18 18 15 12 11 11 9 9 8 6 7 7 8 9 10 9 9 10 10 10 11 13 14 14 13 13 12 13 12 10 8
48 46 44 43 42 41 40 40 39 39 39 38 38 38 38 39 38 38 40 41 41 42 44 46 49 50 51 54 54 55 56 55 53 52 52 50 50 49 49 48 47 44 42 40 39 38 36 33 29 27 24 24 26 28 28 23 19 20 19 17 14 11 10 9 8 8 7 7 7 7 8 9 10 10 9 9 10 11 13 14 14 13 11 10 11 11 10 9
43 41 40 39 38 39 39 39 38 38 38 37 37 37 36 38 36 36 38 37 36 37 36 38 41 42 43 47 49 51 53 54 54 54 54 53 52 51 51 50 50 48 45 44 43 41 40 37 32 29 29 28 29 29 29 23 19 22 21 18 16 13 11 9 7 7 7 7 7 7 8 8 9 10 9 8 9 11 13 13 13 12 10 10 12 13 13 13
40 40 39 39 38 39 40 40 39 39 39 38 38 38 38 40 37 37 39 37 36 37 35 36 38 37 37 40 42 44 47 49 51 53 54 55 55 54 53 52 51 51 50 48 46 44 42 39 34 33 34 33 32 30 29 24 20 23 23 20 18 15 12 11 8 6 6 7 7 6 6 7 7 7 7 7 7 9 11 12 13 12 11 11 13 14 15 16
40 40 40 40 39 39 40 42 41 41 41 39 39 39 40 42 39 38 40 39 38 37 37 38 38 38 37 36 38 38 39 42 44 46 49 52 54 55 55 54 53 53 53 52 49 46 43 40 39 39 39 37 35 32 30 26 23 25 26 22 19 18 15 13 10 7 6 7 8 6 5 6 6 7 7 6 6 8 10 12 13 13 12 12 12 14 15 16
40 40 40 40 40 39 40 42 43 42 42 42 41 40 41 43 40 39 40 40 40 37 37 39 38 41 40 38 39 37 37 39 37 38 43 46 50 53 55 56 55 55 55 53 51 49 46 45 45 46 45 41 36 34 32 28 25 25 27 25 22 20 18 15 13 10 9 9 9 7 6 5 5 7 8 8 8 8 10 13 15 14 13 12 11 12 13 14
40 41 42 42 42 41 41 43 44 44 44 44 44 43 43 43 41 40 39 39 42 38 37 38 38 41 42 40 39 39 40 39 35 36 38 40 43 46 50 54 57 57 56 54 53 52 50 50 52 51 49 44 39 36 34 31 27 26 28 27 25 23 20 19 16 14 12 11 10 10 9 8 7 7 8 9 9 9 11 14 15 14 13 12 11 11 12 12
42 43 44 44 44 43 42 43 44 43 44 44 44 46 44 42 41 40 39 38 41 41 38 37 39 42 43 41 39 40 42 41 39 39 37 37 38 39 42 49 53 56 57 57 56 54 53 54 56 54 51 49 43 39 36 33 30 28 29 30 29 25 23 22 19 17 15 14 13 13 12 11 9 8 8 10 10 9 11 14 16 15 14 12 11 10 11 11
45 45 46 47 46 45 43 43 44 43 43 43 45 46 43 41 41 41 40 37 40 45 40 36 39 43 42 40 39 40 40 41 43 41 38 39 38 35 36 40 46 51 56 59 57 55 55 57 57 55 54 52 49 43 39 37 33 30 30 33 33 29 26 25 22 19 18 18 16 14 14 13 11 10 10 12 12 11 12 15 17 16 14 12 10 10 11 11
48 47 48 49 48 49 47 45 46 45 45 46 48 47 44 43 42 41 42 39 40 46 43 37 39 43 42 40 39 38 38 42 44 41 39 41 40 35 34 36 40 45 51 56 58 57 58 59 58 57 56 55 53 48 43 41 37 33 32 35 37 33 29 27 25 22 22 22 19 16 15 14 13 12 12 13 13 12 12 15 17 17 15 13 11 11 12 12
51 50 50 51 51 52 52 50 50 49 48 50 52 50 47 46 44 43 43 39 40 45 44 42 43 44 44 41 39 39 40 41 41 41 43 42 42 39 37 38 37 39 44 49 54 57 60 61 59 59 58 58 55 52 48 45 41 38 37 38 40 38 33 30 28 25 24 25 21 18 17 15 15 15 13 13 14 15 15 15 16 17 17 14 12 12 13 13
55 53 52 54 53 53 56 55 53 52 52 53 55 53 51 50 48 47 45 39 40 44 43 45 47 46 45 43 41 42 42 40 38 41 43 41 42 43 41 41 39 37 38 40 47 55 60 61 61 60 59 59 57 55 54 50 45 44 44 42 42 42 37 34 31 27 27 27 23 20 19 17 16 16 15 14 14 16 17 17 16 17 16 16 15 15 15 14
57 56 55 56 56 55 58 59 56 55 56 56 57 56 55 54 52 51 48 42 43 46 44 45 48 48 48 45 43 45 44 41 39 40 41 39 42 44 43 42 41 39 37 36 40 49 56 60 62 62 60 60 60 58 58 55 49 50 50 45 44 45 42 38 34 31 30 27 23 22 21 19 18 17 16 16 16 17 18 17 17 16 16 16 17 17 17 16
59 59 57 58 59 59 60 61 60 60 59 59 59 59 58 57 56 55 50 45 49 52 49 47 49 50 50 48 47 48 46 44 42 41 40 40 41 42 44 44 41 41 40 36 36 42 50 57 60 62 61 62 63 61 60 58 55 55 54 48 46 46 46 43 38 34 31 26 23 24 23 21 19 18 18 18 20 20 18 17 18 18 18 18 19 18 17 17
62 62 61 60 61 62 64 63 63 65 64 63 62 62 61 60 60 57 51 50 55 57 55 54 54 53 52 51 50 50 49 48 46 43 41 41 42 40 41 43 42 42 42 40 38 39 44 49 55 60 62 64 64 63 62 62 60 58 55 52 49 48 49 47 42 37 31 25 23 26 25 22 21 21 21 21 22 21 19 20 21 21 20 20 20 20 19 18
66 65 65 64 63 65 67 67 66 68 68 67 67 66 65 63 61 57 54 57 60 60 60 61 59 56 54 53 52 52 52 52 50 47 43 41 42 41 40 41 42 42 41 42 42 40 39 43 49 55 60 63 64 64 64 64 63 60 57 56 54 52 50 49 45 40 35 29 27 28 27 24 23 26 26 24 24 23 22 22 22 23 23 22 23 22 20 20
70 69 69 69 67 68 70 70 70 71 71 71 70 69 68 66 60 56 58 61 62 64 65 64 62 60 57 55 56 56 55 55 54 52 47 42 41 41 41 41 41 40 40 42 43 42 39 39 43 48 55 61 63 65 66 66 64 62 60 61 59 55 52 50 47 44 42 36 31 31 30 26 26 30 29 28 28 26 24 24 23 23 24 24 25 24 22 22
74 74 74 74 74 73 73 74 74 74 75 75 73 72 70 66 60 60 62 63 65 68 69 68 66 63 60 58 59 59 58 58 57 56 52 46 43 42 41 43 43 40 41 43 42 41 40 38 40 44 49 54 60 65 68 68 68 65 64 65 63 58 54 51 50 51 48 42 37 36 33 30 29 32 35 34 31 29 27 26 25 24 24 25 26 25 25 25
79 78 79 80 80 78 78 79 79 79 79 78 77 75 71 66 64 66 67 68 69 70 72 72 70 67 64 61 60 61 62 61 61 61 57 51 46 45 43 44 46 43 41 43 42 41 40 37 40 43 44 47 53 61 67 69 69 68 68 68 64 58 55 56 56 56 52 46 43 40 35 33 33 36 39 36 32 31 30 29 27 26 25 26 26 27 27 27
84 84 85 86 86 85 84 83 84 84 83 83 81 77 72 70 72 73 73 73 73 74 75 76 73 70 69 67 64 62 63 64 65 64 61 55 50 49 48 46 48 47 44 44 45 44 41 39 41 42 41 43 46 52 62 67 67 68 69 67 63 60 61 63 61 59 56 51 47 43 39 37 38 39 40 36 33 34 33 31 30 29 28 28 28 28 29 29
89 89 91 92 92 91 90 88 88 88 87 87 84 79 77 77 78 77 77 78 78 78 79 79 77 74 72 72 70 67 65 66 68 66 64 61 54 51 52 50 49 49 47 47 47 47 44 43 43 41 40 42 43 45 53 61 65 67 67 65 64 66 67 66 63 61 59 54 49 47 43 41 41 41 40 37 35 35 35 35 34 32 31 30 30 30 31 31
92 92 95 98 97 95 94 93 92 92 91 90 86 82 82 83 83 83 83 82 82 82 82 81 80 79 77 76 75 73 71 69 69 69 67 65 59 54 55 55 52 51 50 50 49 49 48 46 45 43 40 41 43 41 43 51 59 64 66 67 69 70 70 68 65 62 60 56 53 51 48 45 45 43 41 40 39 39 39 39 37 35 34 32 32 33 33 32
95 95 98 102 102 99 98 97 96 96 95 93 89 87 87 87 87 88 88 88 87 86 85 83 84 84 82 80 78 78 78 74 72 71 71 68 64 59 58 58 57 54 53 54 52 51 52 50 48 46 43 42 42 38 36 43 52 60 66 70 71 71 71 70 67 64 62 62 59 55 51 49 47 45 44 43 43 44 43 40 38 38 37 35 35 36 36 34
99 99 101 106 106 104 103 102 101 100 99 96 94 93 92 92 92 92 92 92 92 90 88 87 88 88 86 85 83 82 83 81 77 74 73 72 68 65 62 60 60 59 58 57 56 54 55 53 50 49 47 43 40 37 36 41 47 54 61 67 69 69 70 72 70 67 67 67 63 57 52 50 49 48 49 47 47 48 45 41 40 40 41 40 38 38 38 36
103 103 106 110 111 108 108 107 105 104 103 101 100 99 98 98 97 96 96 96 96 94 92 91 92 91 89 89 88 86 86 86 83 80 76 74 72 70 67 64 62 62 62 60 58 57 57 55 53 53 50 46 42 39 39 43 45 47 53 60 65 67 70 73 73 70 69 68 65 59 54 52 51 51 53 53 51 49 47 44 42 43 45 44 41 39 39 39
108 108 110 115 117 114 112 112 110 109 108 106 105 105 105 104 103 102 101 100 99 98 97 97 94 93 93 92 92 92 91 89 88 85 81 78 76 74 73 70 66 65 66 64 60 59 61 60 56 54 52 49 47 44 41 43 45 45 47 51 59 65 69 73 72 69 70 70 68 64 60 56 55 54 55 57 55 51 49 47 45 46 48 46 42 42 42 42
113 112 115 121 123 121 118 117 116 115 114 112 111 110 110 110 108 107 106 105 104 102 102 101 99 98 98 96 96 97 97 94 91 90 87 83 80 77 76 75 72 68 67 67 65 62 64 63 58 55 56 54 50 46 43 44 45 44 43 45 52 58 63 69 69 68 71 73 72 70 66 60 58 57 59 61 59 56 53 50 50 51 51 49 46 45 45 46
118 117 119 125 129 127 124 122 121 122 122 119 118 116 116 115 113 112 111 110 109 108 107 105 103 103 103 102 102 101 101 99 96 94 92 89 85 82 79 77 77 74 69 68 69 66 65 65 62 58 57 56 52 47 45 45 42 42 42 43 48 53 58 65 69 70 73 74 74 73 68 62 60 62 64 64 63 60 56 54 54 54 53 54 52 49 48 49
123 122 124 129 132 133 130 128 127 128 128 127 124 122 121 120 119 117 117 116 114 113 113 111 109 109 108 108 108 107 106 104 100 97 96 93 90 86 82 80 79 78 74 70 71 71 68 66 66 62 58 57 54 49 48 48 44 43 45 45 45 49 54 59 65 71 72 71 74 75 69 65 65 66 68 67 64 61 60 59 58 57 57 58 56 53 51 51
127 127 129 132 135 136 135 134 133 133 134 133 130 128 126 125 124 123 122 121 120 120 120 117 115 115 114 114 113 111 110 109 105 102 99 97 94 91 89 85 82 81 78 73 72 74 72 68 66 64 61 58 57 55 55 52 48 44 46 47 46 46 50 55 62 67 68 69 73 74 72 71 70 69 69 69 66 64 64 65 63 61 61 61 58 55 54 54
131 132 133 135 138 139 139 139 139 138 138 137 135 133 130 129 128 127 126 126 126 127 125 122 119 119 120 120 118 115 114 113 111 107 103 100 97 96 94 89 84 82 80 77 76 75 74 71 67 66 65 61 59 60 60 56 49 45 46 48 47 46 47 51 55 58 61 66 70 72 73 75 74 72 71 70 70 70 69 68 66 65 65 64 61 58 57 56
136 136 137 138 140 141 143 143 143 143 142 141 140 137 135 133 133 132 131 131 132 132 129 126 124 125 125 124 121 118 117 117 116 112 108 104 101 99 98 94 89 85 83 82 80 77 76 73 69 68 68 65 62 62 63 60 51 48 48 48 48 47 46 47 48 50 55 61 65 66 71 74 74 75 75 74 73 74 73 70 68 68 68 67 65 62 60 59
135 135 135 135 137 139 141 143 144 143 142 142 142 140 138 137 137 136 136 136 137 137 135 131 130 129 128 127 125 123 121 120 119 115 111 107 105 102 101 100 97 92 87 86 84 81 78 76 73 71 69 68 66 64 65 64 56 50 50 48 48 47 45 44 45 46 50 55 58 62 67 70 72 76 79 78 77 76 76 73 71 71 71 70 68 66 64 62
123 123 122 122 123 125 128 130 133 134 134 134 135 136 136 136 137 138 139 140 141 141 140 137 134 133 131 130 130 129 126 123 120 117 113 109 106 105 104 103 102 97 93 91 89 85 82 79 76 73 72 71 69 68 69 67 62 56 51 48 48 47 44 44 45 46 47 48 51 57 63 67 69 73 78 82 82 79 77 76 74 73 73 72 71 69 68 66
105 104 103 103 103 105 107 110 112 114 115 116 119 121 122 124 128 131 134 136 138 140 141 139 136 135 135 134 134 132 129 125 122 119 116 112 109 109 107 104 103 100 97 96 95 92 87 83 78 77 76 72 70 72 70 68 68 64 52 46 48 49 46 44 44 46 48 48 47 51 56 62 66 70 75 81 84 82 80 80 78 74 73 74 74 73 71 69
90 90 89 89 89 90 91 92 94 96 97 98 100 102 104 106 109 113 117 122 127 132 135 135 133 134 135 135 136 135 132 128 123 121 119 115 112 112 111 107 106 104 101 99 100 98 93 87 83 81 78 74 73 73 72 73 73 63 49 46 50 51 47 44 45 48 50 49 48 47 49 56 64 69 72 75 81 83 84 83 80 76 75 77 77 76 74 71
Wind_Direction
268 269 269 270 272 273 274 275 277 278 280 282 283 285 287 288 289 291 293 294 296 297 300 303 307 310 312 315 317 319 321 325 328 332 335 337 340 346 353 356 357 1 4 7 11 16 21 23 23 21 18 19 13 314 237 224 222 224 226 229 231 231 232 236 241 245 250 253 253 252 253 256 259 258 254 251 251 252 255 255 256 258 260 261 261 262 264 265
270 271 272 273 274 275 276 277 279 279 281 282 283 284 285 286 287 288 289 289 291 292 293 295 298 301 304 307 309 310 311 314 318 321 324 327 330 334 339 345 347 351 354 358 1 5 11 15 17 18 16 15 15 8 297 237 229 226 228 232 233 233 233 233 239 245 249 254 256 257 259 261 261 261 255 250 250 251 252 253 254 256 256 257 261 262 261 263
272 273 274 275 276 276 277 278 279 280 281 282 282 283 283 284 284 285 285 286 287 287 288 289 290 292 295 298 300 302 302 303 311 313 312 316 321 325 328 333 337 342 346 348 352 355 359 6 10 12 13 13 12 12 4 290 240 232 232 236 236 236 236 234 239 248 251 254 255 257 260 261 260 260 253 247 248 251 251 252 253 254 255 256 260 261 261 263
273 273 274 275 276 276 277 278 278 279 280 280 281 281 281 281 282 282 282 282 283 283 284 284 285 285 286 288 290 294 293 295 304 304 302 308 314 317 319 322 326 331 337 340 343 347 349 355 1 6 9 10 10 10 10 359 276 239 233 235 237 237 239 239 243 249 253 255 256 257 258 258 257 255 250 245 246 250 251 251 252 253 255 256 259 261 262 263
273 273 274 274 275 275 276 276 276 277 278 279 279 279 280 280 280 279 279 279 278 278 279 279 280 279 280 280 281 285 285 288 294 292 294 301 305 308 310 312 317 322 327 331 334 338 341 345 351 358 3 6 8 8 10 9 348 265 234 231 233 235 238 241 246 251 254 256 257 256 255 254 251 249 248 246 246 249 249 249 251 253 254 256 257 259 260 262
273 274 275 275 275 276 276 276 276 277 277 277 278 278 279 279 279 279 279 278 277 276 275 275 275 275 274 274 275 276 278 282 283 283 288 295 297 298 300 304 309 313 318 321 325 329 332 337 341 347 354 360 4 6 8 10 7 340 251 232 232 234 236 241 249 255 255 254 252 249 249 249 247 247 249 249 246 246 247 247 249 252 254 255 256 257 259 261
274 275 275 275 276 276 276 277 276 276 276 276 277 277 277 277 278 278 278 277 277 276 275 273 272 272 271 270 270 270 272 276 278 280 284 287 289 289 292 298 301 304 309 312 315 319 323 327 332 338 344 350 358 2 4 7 11 7 328 243 235 235 238 244 251 258 257 250 245 244 245 247 248 250 252 252 248 246 247 248 250 252 254 255 256 256 258 259
274 274 274 275 275 275 275 275 275 275 275 275 275 275 275 275 275 276 276 276 276 275 275 273 272 271 270 269 267 266 267 272 275 277 278 279 282 285 288 291 292 296 300 303 307 310 314 318 323 329 334 339 347 355 359 2 7 10 5 321 253 242 242 247 253 258 255 247 241 238 243 246 247 248 252 253 252 251 252 252 253 255 256 257 257 256 253 252
273 273 274 274 274 274 274 274 274 274 274 274 273 273 273 273 274 274 274 274 274 273 273 273 272 270 269 268 267 265 264 268 273 274 273 275 278 281 282 283 284 287 290 294 297 301 306 309 314 319 324 329 335 343 351 355 0 7 7 359 339 264 243 243 248 250 248 245 241 239 242 242 241 242 244 250 253 254 255 255 256 257 257 254 252 250 245 242
272 272 273 273 273 273 273 273 273 273 273 273 273 272 272 272 272 272 272 272 272 272 271 271 271 270 268 267 266 264 264 264 267 271 272 272 273 274 275 278 280 281 283 285 289 293 297 301 305 310 314 319 324 330 339 347 352 359 5 0 353 330 265 240 238 243 246 246 244 243 242 235 230 234 240 248 253 255 258 258 256 253 248 244 240 237 232 232
270 270 271 271 271 271 272 272 272 272 272 272 272 271 271 271 270 270 270 269 269 269 269 269 268 268 267 266 265 264 263 262 262 266 269 270 270 270 271 273 276 278 278 278 281 285 288 293 297 301 306 310 315 319 325 336 343 348 357 360 354 341 318 270 242 243 245 244 239 238 236 226 219 227 239 249 252 254 255 253 248 242 236 234 231 228 225 227
270 270 270 271 271 271 271 271 271 271 271 271 271 270 270 269 269 269 268 268 267 267 267 266 266 265 265 265 264 263 262 260 260 261 263 266 268 267 267 269 272 274 275 274 276 279 282 285 289 294 299 302 307 311 315 322 330 338 345 351 354 347 333 315 270 251 246 241 233 229 228 219 211 219 231 242 243 242 242 240 237 232 229 229 229 228 226 228
272 272 272 272 272 273 273 272 272 272 271 271 271 270 270 269 268 268 267 266 266 265 265 264 264 264 263 263 262 262 260 259 258 258 258 261 264 265 265 265 267 270 272 273 273 274 277 278 282 287 291 296 300 302 306 312 317 326 334 339 348 349 336 323 308 278 253 239 229 223 221 216 209 212 222 231 234 233 234 235 233 229 230 231 231 231 230 230
273 274 274 274 274 275 275 274 274 274 273 273 272 272 271 270 270 268 268 267 266 265 264 263 263 262 262 261 261 260 259 258 257 257 256 256 258 262 262 262 263 265 268 270 270 270 272 274 277 279 283 289 292 294 299 302 306 313 321 329 338 344 339 325 315 305 271 243 229 221 217 215 209 211 218 223 227 230 232 235 232 228 232 238 239 237 234 232
274 275 275 275 276 276 276 276 276 276 275 275 274 274 274 273 272 271 270 269 268 266 265 263 262 261 260 260 260 260 258 257 256 255 254 254 255 257 259 259 260 261 263 266 268 268 268 271 273 273 278 282 283 288 292 293 297 303 309 319 327 333 336 330 319 312 290 261 238 222 215 212 213 214 217 216 219 228 231 234 233 231 233 240 245 243 236 228
275 275 276 276 276 277 277 277 277 277 277 277 276 276 276 275 274 273 272 271 270 268 267 266 263 262 260 259 258 258 258 256 256 255 253 252 252 253 255 256 256 257 259 261 265 266 265 266 268 269 271 273 277 282 284 285 290 295 300 306 314 320 328 334 325 316 300 276 250 231 217 210 215 223 225 220 218 225 232 234 235 235 235 239 243 240 229 215
275 276 276 277 278 278 278 279 279 279 280 280 279 279 279 278 277 276 275 273 272 271 270 268 266 264 262 260 258 257 257 255 254 254 253 252 251 251 251 253 253 253 255 258 261 263 262 261 261 265 266 267 272 274 274 278 285 290 292 295 300 306 317 329 326 316 301 277 259 242 226 215 218 227 231 227 220 223 230 234 235 234 232 232 230 219 202 190
276 276 277 278 279 280 280 281 281 282 282 283 283 283 284 283 282 281 280 278 277 275 272 271 269 266 264 262 259 257 256 255 254 253 253 252 251 250 249 250 251 251 252 254 256 258 259 258 257 261 263 262 263 264 268 274 282 284 284 286 288 292 301 314 319 315 300 280 266 252 237 225 226 232 234 227 220 223 226 229 230 225 217 211 204 190 170 165
276 277 277 278 279 280 281 282 282 283 283 285 286 286 287 287 287 287 285 284 284 282 279 277 274 270 268 266 262 259 257 255 254 253 252 251 250 249 248 248 249 249 249 250 252 253 256 257 257 259 259 257 257 260 265 271 275 277 277 279 280 280 286 294 302 308 298 280 267 256 245 234 232 236 233 222 217 219 221 223 220 205 188 179 176 164 149 146
276 277 277 277 278 279 281 281 281 282 282 283 284 286 286 286 288 288 287 288 288 287 286 284 282 278 274 271 268 264 261 258 255 253 252 251 250 249 248 247 247 248 248 247 248 250 253 257 258 257 255 254 255 258 262 266 266 268 271 271 273 274 273 276 280 288 289 276 260 245 234 229 226 223 219 214 209 211 214 213 202 182 167 163 160 150 143 145
275 275 276 276 276 277 278 279 279 280 280 281 281 283 283 283 286 285 286 288 287 287 288 286 287 285 281 279 276 271 268 263 258 256 254 251 250 248 247 247 246 246 246 246 247 248 251 255 256 253 250 249 250 254 257 259 258 261 265 267 268 269 266 265 268 268 272 265 254 235 218 214 207 199 199 200 200 200 205 202 188 172 163 161 159 154 151 154
272 274 274 275 274 275 276 278 279 278 279 280 279 280 280 280 282 282 283 284 284 285 285 285 286 285 283 283 282 280 277 271 265 261 258 254 251 249 248 246 245 245 245 245 245 246 246 249 251 250 249 246 246 250 253 254 254 257 262 264 264 263 261 260 258 255 254 251 247 235 220 213 203 197 193 193 198 196 194 194 184 171 167 165 168 169 168 168
270 272 273 274 274 274 275 277 278 279 279 279 279 278 277 278 279 280 280 280 281 281 281 283 283 280 281 283 284 284 282 279 275 270 264 259 254 251 249 247 245 244 245 244 243 243 243 245 248 249 250 248 245 246 250 252 253 254 258 261 260 258 258 256 251 247 245 241 239 235 229 225 216 210 200 190 197 197 192 194 186 176 172 172 174 182 183 180
270 272 273 274 274 274 275 276 277 278 279 279 280 278 276 277 278 277 277 277 279 279 278 281 279 277 278 281 282 280 281 282 280 275 272 268 261 254 251 250 247 245 244 243 242 242 242 243 246 248 250 251 248 244 246 250 251 251 254 257 257 255 255 253 249 245 243 239 233 231 232 234 228 217 205 195 196 200 197 196 192 185 182 180 180 188 193 187
269 271 273 274 275 275 274 275 277 277 278 279 279 277 277 277 275 274 274 274 277 278 277 278 278 276 277 279 278 277 278 278 276 276 277 274 269 260 254 253 249 245 243 242 241 240 241 242 244 246 248 250 249 245 243 245 247 247 249 253 255 253 251 251 248 245 244 240 233 230 232 238 239 225 208 202 200 200 198 197 198 196 192 190 191 195 200 195
269 270 273 274 275 276 275 275 276 277 278 279 278 278 278 276 274 273 272 273 274 276 278 278 276 276 277 278 278 278 275 271 273 277 276 273 273 268 262 257 252 247 244 242 240 239 239 241 242 243 245 247 249 247 243 242 243 245 245 248 252 250 248 249 246 241 242 241 235 231 231 234 241 235 218 208 204 203 201 199 203 204 201 201 202 204 204 201
269 270 271 273 273 275 275 274 275 276 277 278 278 278 278 277 276 274 272 271 271 274 277 277 273 274 276 278 278 277 273 271 274 274 271 272 274 272 268 264 257 251 248 244 241 239 239 239 240 241 243 244 247 248 245 241 239 242 240 242 248 249 245 245 243 238 240 240 235 232 232 228 233 235 228 216 206 206 206 202 204 207 206 207 209 209 208 204
269 269 270 272 272 273 275 274 274 276 276 277 277 278 278 277 277 276 274 272 271 272 273 274 273 273 274 275 275 274 273 274 274 271 270 271 271 270 269 268 264 259 252 246 243 240 239 238 238 239 241 243 245 246 246 241 236 239 240 239 244 248 245 242 239 236 237 237 233 232 232 228 229 232 231 225 214 210 209 205 204 206 207 210 211 211 209 207
269 270 270 272 272 272 273 274 274 274 275 275 276 277 277 276 276 275 275 276 276 273 270 270 273 273 271 271 272 272 272 272 271 270 271 269 266 267 268 268 268 266 259 250 244 242 240 238 237 237 238 240 242 243 245 243 237 238 240 238 241 246 246 243 238 235 235 234 231 233 233 230 231 230 230 230 225 219 215 210 209 208 209 212 213 213 211 209
269 270 270 271 272 272 272 273 274 274 273 273 274 275 275 276 276 275 278 280 278 275 273 270 269 269 270 270 270 271 272 272 271 269 269 268 265 265 266 266 266 266 264 256 248 244 242 240 238 237 236 238 239 241 243 244 240 238 239 238 239 243 246 245 241 236 233 230 233 237 235 232 233 233 231 229 229 226 222 217 216 214 212 215 217 217 215 213
269 269 269 269 270 271 271 271 272 273 272 272 272 272 272 273 274 277 282 281 276 274 274 271 268 267 268 268 268 270 271 271 271 269 268 268 268 267 265 265 264 263 264 261 254 247 243 241 240 237 235 235 238 239 241 243 242 239 238 238 238 240 244 246 244 241 234 230 235 239 237 232 233 235 231 229 230 230 228 223 220 220 217 217 221 221 219 219
268 268 268 267 267 268 269 269 269 270 271 271 271 271 271 271 273 279 281 277 274 274 272 269 269 269 269 269 268 268 268 269 270 270 269 269 269 269 267 264 262 260 261 260 257 252 246 243 241 240 237 235 236 238 239 241 243 242 239 238 237 237 241 245 246 245 239 233 233 239 238 231 232 236 233 229 231 231 231 230 226 225 223 220 223 225 224 226
269 268 268 267 266 267 268 269 268 268 269 269 269 269 270 271 274 277 275 273 273 272 269 269 269 269 269 269 268 268 268 269 270 270 270 269 268 268 267 265 262 259 257 256 257 256 252 246 243 241 239 237 235 235 238 239 241 242 240 238 236 234 236 242 244 244 241 235 232 236 235 229 232 239 237 231 230 230 230 233 231 229 229 228 227 229 229 231
270 270 270 269 268 267 268 268 268 268 267 267 267 267 268 271 273 273 271 271 270 269 268 269 268 267 268 268 268 269 269 269 269 269 269 268 268 268 267 266 264 260 256 255 254 255 254 251 247 242 239 239 238 235 235 237 238 239 239 238 235 232 233 237 240 241 240 236 232 232 230 227 231 237 238 234 230 229 229 231 232 230 230 232 232 232 233 234
271 270 270 270 269 268 268 268 268 267 267 266 266 266 268 270 271 270 269 269 268 267 268 268 268 268 269 268 267 267 268 268 268 268 269 268 267 267 266 265 264 262 259 257 254 251 250 250 250 246 239 239 241 238 235 236 239 239 240 241 238 235 234 236 238 240 239 235 233 231 227 227 231 234 237 237 233 233 231 229 232 231 231 233 233 233 235 237
271 271 270 269 269 268 267 266 267 267 267 267 267 267 268 269 268 268 269 268 268 268 268 269 269 269 269 269 267 264 265 266 266 267 268 267 265 265 266 265 264 263 261 259 256 251 248 248 251 250 243 239 242 243 238 235 238 240 241 243 242 238 235 234 236 239 239 236 233 232 229 228 232 236 239 240 237 237 236 233 232 231 231 233 234 233 235 237
270 270 270 269 269 268 267 266 265 266 266 267 268 269 269 268 267 267 268 268 267 267 267 268 270 269 268 268 268 266 263 263 264 265 266 267 265 263 263 264 263 263 262 260 258 254 250 248 249 251 248 242 241 244 242 238 238 240 241 242 241 238 236 233 233 237 239 238 236 235 232 230 232 235 239 240 240 240 240 237 234 232 230 231 236 236 234 237
269 270 270 269 269 268 267 267 266 265 265 265 267 268 269 268 268 268 267 266 266 265 265 266 268 268 267 267 268 268 265 262 262 263 264 265 265 262 261 262 262 261 261 260 259 258 254 250 248 249 249 247 243 241 245 244 242 242 240 239 239 239 238 235 232 235 239 240 239 237 235 232 232 234 237 239 240 241 240 239 238 236 233 231 235 239 236 236
268 269 269 269 268 268 268 267 267 266 266 266 266 267 267 267 267 267 267 266 265 265 265 266 266 266 267 267 267 267 267 265 262 262 262 264 264 262 259 259 259 258 258 259 259 258 257 253 250 248 246 248 247 243 245 248 246 243 240 238 238 239 240 238 234 233 237 238 237 236 235 235 234 234 236 238 239 240 238 237 238 239 237 233 234 239 239 237
267 268 268 268 268 267 267 267 267 267 267 267 267 266 266 266 266 266 266 266 265 265 265 266 266 266 267 267 266 266 267 267 265 262 261 262 263 262 258 256 256 256 255 257 258 258 258 257 255 252 246 245 248 246 247 249 247 247 244 240 239 240 240 241 236 232 234 236 236 235 235 237 237 236 237 236 237 240 239 237 238 241 241 238 235 237 241 241
267 267 267 267 267 266 266 266 266 267 267 267 267 267 266 265 265 265 265 265 265 265 265 264 264 265 266 266 266 265 264 265 265 263 261 261 261 261 259 255 252 253 253 255 257 258 259 258 257 256 250 244 243 243 247 251 250 250 249 245 241 241 240 241 239 235 234 236 236 236 235 236 236 237 238 237 236 238 241 240 239 241 242 240 237 237 240 242
267 267 267 267 266 265 265 265 265 265 265 266 266 265 265 264 264 264 263 263 263 264 264 263 263 264 264 264 264 264 263 263 264 264 262 261 260 259 259 256 251 249 251 253 254 254 256 257 257 258 255 249 242 238 243 252 253 251 252 250 245 242 241 242 242 239 237 236 236 235 233 233 234 235 238 239 238 237 239 241 240 241 242 242 239 237 238 240
267 267 267 267 266 265 265 264 264 264 264 263 263 262 262 263 263 263 263 263 263 262 262 262 263 262 262 262 261 262 262 262 262 263 263 261 260 258 258 257 254 250 248 250 251 251 253 258 258 258 258 255 247 240 240 248 253 253 255 256 250 245 243 243 242 241 238 236 235 234 232 232 234 234 236 239 240 237 236 238 239 240 242 243 241 238 239 239
267 267 266 266 266 266 265 265 264 264 263 262 261 261 261 261 261 261 261 261 261 261 261 261 261 261 261 261 260 260 261 261 261 262 262 261 260 259 257 257 257 254 249 248 249 249 250 255 257 256 257 258 253 245 241 242 248 254 256 257 253 247 244 243 241 240 239 237 236 234 232 232 234 235 236 237 239 239 237 235 237 238 240 241 241 239 239 240
268 267 266 266 266 266 266 265 264 264 263 262 261 261 260 260 260 260 259 259 259 260 259 259 259 259 259 259 259 259 259 260 260 259 260 260 259 258 256 254 255 255 253 248 247 247 247 250 255 257 257 259 257 253 248 240 238 247 255 255 253 249 246 244 242 240 239 238 238 236 232 232 234 235 237 238 239 241 241 238 237 238 239 240 241 240 240 241
269 268 267 267 267 267 267 266 265 264 263 263 262 261 261 260 260 260 259 259 258 258 257 257 257 257 257 257 257 257 258 259 258 257 257 257 257 257 255 253 252 254 255 252 248 248 248 248 252 257 258 258 258 258 256 244 232 239 253 256 255 253 249 247 245 242 240 240 239 237 234 232 233 235 238 240 240 240 241 241 240 239 240 240 241 241 241 242
271 270 269 268 268 268 267 266 265 264 264 263 262 261 261 260 260 259 258 258 257 256 255 256 256 256 256 256 255 256 256 257 257 256 255 256 255 255 256 255 253 253 256 256 253 250 250 249 250 254 257 256 255 256 258 252 235 232 247 254 254 253 252 250 248 247 245 243 241 239 237 234 233 234 236 239 240 238 238 240 242 242 242 243 242 241 242 243
273 272 270 269 268 268 267 266 265 264 263 263 262 261 260 258 258 257 256 256 255 255 254 253 253 253 253 254 255 255 255 256 257 257 256 256 256 256 258 259 256 254 255 256 255 254 252 252 250 250 253 255 254 254 257 257 245 234 241 250 252 253 254 252 250 251 250 245 242 241 240 237 235 235 235 236 238 240 239 238 240 242 243 243 243 243 243 243
274 273 271 270 268 267 266 266 265 264 263 262 261 260 259 258 257 256 255 254 254 254 253 252 251 251 252 252 252 252 252 253 254 256 256 257 258 258 259 261 260 258 256 255 255 255 255 255 252 249 249 252 253 253 255 257 253 242 239 245 249 250 253 254 251 251 253 249 245 244 242 239 236 236 237 236 236 238 240 239 238 240 242 243 244 244 244 244
274 273 271 269 268 267 266 265 264 263 262 261 260 260 258 257 256 255 254 253 252 252 252 251 251 251 250 251 251 250 250 251 252 253 253 253 254 255 256 258 260 259 257 256 256 256 257 257 256 251 248 249 251 253 254 256 258 252 242 242 248 248 249 254 253 251 252 251 249 248 245 241 237 236 238 239 237 237 239 241 240 240 242 244 245 245 246 246
275 273 271 270 268 267 265 264 263 262 261 260 259 258 257 256 254 253 252 252 251 251 251 250 250 249 249 249 250 250 250 250 250 251 252 250 250 251 252 254 256 256 255 256 257 257 257 257 257 253 250 250 251 253 254 255 257 256 247 239 246 249 246 248 253 254 252 250 249 250 249 245 240 237 237 239 240 238 238 240 241 240 241 244 245 246 247 248
276 274 272 271 269 267 265 264 263 262 261 259 258 257 255 254 253 252 251 251 250 250 250 249 248 248 248 248 249 249 249 249 248 249 250 249 248 248 249 250 251 252 252 253 255 257 257 256 255 254 253 252 251 251 252 252 254 257 254 246 248 249 245 244 250 254 253 250 248 248 248 247 244 239 236 237 240 241 240 239 240 240 241 243 245 245 246 247
Height
10991 10992 10992 10992 10992 10993 10993 10994 10994 10995 10995 10995 10996 10996 10997 10997 10998 10998 10998 10998 10999 10999 10999 10999 10998 10998 10997 10996 10995 10994 10994 10994 10994 10994 10993 10993 10992 10992 10992 10991 10991 10990 10989 10988 10988 10987 10986 10984 10983 10982 10980 10979 10978 10977 10977 10977 10977 10978 10978 10978 10978 10979 10979 10980 10979 10980 10980 10980 10981 10982 10983 10984 10985 10985 10986 10988 10990 10991 10992 10993 10994 10995 10996 10995 10995 10997 10997 10996
10989 10989 10989 10990 10990 10990 10991 10991 10992 10992 10993 10993 10994 10994 10995 10995 10996 10996 10997 10997 10997 10997 10997 10998 10998 10997 10997 10996 10995 10993 10992 10992 10993 10993 10992 10992 10992 10991 10991 10991 10991 10990 10989 10988 10987 10987 10986 10985 10983 10982 10981 10980 10978 10977 10976 10976 10976 10976 10976 10975 10976 10977 10977 10977 10978 10978 10979 10979 10979 10980 10981 10982 10982 10983 10984 10986 10987 10989 10990 10991 10991 10993 10994 10994 10994 10995 10996 10995
10986 10986 10987 10987 10987 10987 10988 10988 10989 10989 10990 10990 10991 10991 10992 10993 10993 10994 10994 10995 10995 10995 10996 10996 10996 10997 10996 10995 10994 10993 10991 10990 10992 10991 10991 10991 10991 10991 10990 10990 10990 10990 10989 10988 10987 10986 10986 10985 10984 10982 10981 10980 10978 10977 10975 10975 10974 10974 10974 10974 10974 10975 10975 10976 10976 10977 10977 10977 10978 10978 10979 10980 10980 10980 10981 10983 10985 10986 10987 10988 10989 10991 10992 10992 10992 10993 10994 10994
10984 10984 10984 10984 10984 10984 10985 10985 10985 10986 10986 10987 10987 10988 10989 10990 10990 10991 10992 10992 10993 10993 10994 10994 10995 10995 10995 10995 10993 10992 10990 10988 10990 10990 10989 10990 10990 10990 10989 10989 10989 10989 10989 10988 10987 10986 10985 10985 10984 10983 10981 10980 10978 10977 10975 10974 10973 10972 10972 10972 10974 10974 10973 10974 10975 10976 10976 10976 10976 10977 10977 10977 10978 10978 10979 10980 10982 10984 10984 10985 10987 10988 10989 10991 10990 10991 10992 10993
10981 10981 10981 10981 10981 10981 10981 10982 10982 10983 10983 10984 10984 10984 10985 10986 10987 10988 10988 10989 10990 10991 10991 10992 10992 10993 10993 10993 10992 10991 10988 10987 10989 10988 10987 10988 10989 10989 10989 10988 10988 10988 10988 10987 10987 10986 10985 10984 10984 10983 10982 10980 10979 10977 10975 10973 10972 10971 10971 10971 10972 10973 10973 10973 10974 10975 10975 10975 10975 10975 10975 10975 10976 10977 10977 10978 10980 10981 10982 10983 10984 10986 10987 10989 10989 10989 10990 10991
10977 10977 10977 10977 10978 10978 10978 10978 10979 10979 10980 10980 10981 10981 10982 10982 10983 10984 10985 10986 10987 10988 10988 10989 10989 10990 10991 10991 10991 10990 10987 10985 10986 10987 10986 10987 10987 10987 10987 10987 10987 10987 10987 10987 10986 10985 10984 10984 10983 10982 10981 10980 10979 10977 10975 10973 10972 10970 10970 10970 10970 10971 10972 10972 10973 10974 10974 10973 10974 10974 10973 10974 10974 10975 10976 10976 10978 10979 10980 10981 10982 10983 10985 10986 10987 10987 10988 10989
10974 10974 10974 10974 10974 10974 10975 10975 10975 10976 10976 10977 10977 10978 10978 10979 10980 10980 10981 10982 10983 10984 10985 10986 10986 10987 10987 10988 10988 10988 10986 10983 10983 10986 10985 10985 10985 10985 10985 10986 10986 10986 10986 10985 10985 10985 10984 10983 10982 10982 10981 10980 10979 10977 10976 10974 10972 10971 10970 10970 10970 10970 10971 10972 10973 10973 10972 10972 10972 10972 10972 10973 10973 10973 10974 10975 10976 10977 10978 10979 10980 10981 10983 10984 10985 10986 10986 10987
10970 10970 10970 10970 10971 10971 10971 10971 10971 10972 10973 10973 10974 10974 10975 10975 10976 10977 10978 10979 10980 10980 10981 10982 10983 10984 10984 10985 10986 10985 10985 10982 10981 10984 10984 10983 10983 10983 10983 10984 10984 10984 10984 10984 10984 10984 10983 10982 10982 10981 10981 10980 10979 10977 10976 10974 10973 10971 10970 10970 10969 10970 10971 10971 10971 10971 10971 10970 10970 10971 10971 10971 10971 10972 10973 10973 10975 10976 10977 10978 10979 10980 10981 10982 10983 10984 10985 10985
10966 10966 10966 10966 10966 10967 10967 10967 10967 10968 10968 10969 10970 10971 10971 10972 10973 10973 10974 10975 10976 10977 10978 10979 10980 10981 10981 10982 10982 10983 10983 10981 10979 10980 10981 10981 10981 10982 10981 10981 10982 10982 10983 10983 10982 10982 10982 10981 10981 10980 10980 10979 10978 10977 10976 10975 10973 10972 10971 10970 10969 10969 10969 10969 10969 10969 10969 10969 10969 10970 10970 10970 10970 10971 10972 10972 10973 10975 10976 10976 10977 10979 10980 10981 10982 10983 10983 10984
10962 10962 10961 10962 10962 10962 10962 10963 10963 10963 10964 10965 10965 10966 10967 10968 10969 10969 10970 10971 10972 10973 10974 10975 10975 10977 10977 10978 10979 10979 10980 10979 10978 10978 10978 10978 10979 10979 10979 10978 10979 10980 10980 10981 10981 10981 10981 10980 10980 10979 10979 10978 10978 10977 10976 10975 10974 10973 10971 10970 10969 10969 10968 10968 10968 10969 10969 10968 10969 10969 10969 10969 10969 10970 10971 10971 10972 10974 10974 10975 10977 10978 10978 10979 10980 10981 10982 10983
10957 10957 10957 10957 10957 10957 10958 10958 10958 10959 10959 10960 10960 10961 10962 10963 10964 10965 10966 10966 10967 10968 10969 10970 10971 10972 10973 10974 10975 10976 10977 10976 10976 10976 10976 10975 10976 10976 10976 10976 10976 10976 10978 10979 10979 10979 10979 10979 10978 10978 10978 10977 10977 10977 10976 10975 10974 10973 10972 10970 10969 10968 10968 10968 10968 10968 10968 10968 10968 10969 10968 10968 10968 10969 10970 10971 10972 10973 10974 10975 10976 10977 10977 10978 10979 10980 10981 10982
10952 10952 10952 10952 10952 10952 10953 10953 10953 10954 10954 10955 10955 10956 10957 10958 10958 10959 10960 10961 10962 10963 10964 10965 10966 10966 10968 10969 10970 10972 10973 10972 10973 10974 10973 10972 10972 10973 10973 10974 10974 10974 10974 10976 10977 10977 10978 10978 10977 10977 10977 10976 10976 10976 10975 10975 10974 10973 10972 10971 10970 10969 10968 10967 10967 10967 10967 10967 10967 10968 10968 10968 10968 10968 10969 10970 10971 10973 10974 10975 10975 10976 10977 10978 10978 10979 10980 10981
10947 10947 10947 10947 10947 10947 10947 10948 10948 10948 10949 10949 10950 10950 10951 10952 10953 10954 10954 10955 10956 10958 10959 10960 10960 10961 10962 10964 10964 10966 10968 10968 10969 10970 10970 10970 10969 10969 10970 10971 10971 10971 10971 10972 10974 10975 10976 10976 10976 10975 10975 10975 10975 10974 10974 10974 10974 10973 10972 10971 10970 10969 10968 10967 10967 10966 10967 10967 10967 10968 10968 10967 10967 10968 10969 10970 10971 10973 10973 10974 10975 10976 10976 10977 10978 10979 10979 10980
10942 10942 10942 10941 10941 10941 10941 10942 10942 10942 10943 10943 10944 10944 10945 10945 10946 10947 10948 10949 10950 10952 10953 10954 10955 10955 10957 10958 10958 10960 10962 10962 10964 10965 10966 10967 10966 10966 10966 10968 10969 10969 10968 10968 10970 10973 10974 10974 10974 10974 10973 10974 10973 10973 10973 10973 10973 10972 10972 10971 10970 10969 10968 10967 10966 10966 10966 10966 10966 10967 10967 10967 10968 10968 10969 10970 10971 10972 10973 10974 10975 10976 10976 10977 10978 10978 10979 10979
10936 10936 10935 10935 10935 10935 10935 10935 10935 10935 10936 10937 10937 10938 10938 10939 10939 10940 10942 10943 10943 10945 10947 10949 10949 10949 10951 10953 10952 10953 10955 10957 10958 10959 10961 10962 10963 10963 10962 10964 10965 10966 10965 10965 10966 10969 10971 10972 10972 10972 10972 10972 10971 10971 10971 10971 10971 10971 10971 10971 10970 10969 10968 10967 10966 10966 10966 10966 10966 10967 10967 10967 10968 10968 10969 10970 10971 10972 10973 10974 10975 10975 10976 10977 10978 10978 10978 10979
10930 10930 10929 10929 10929 10928 10928 10928 10928 10928 10929 10929 10930 10931 10931 10932 10932 10933 10935 10935 10936 10938 10940 10941 10941 10942 10944 10946 10947 10947 10948 10951 10952 10953 10955 10957 10958 10959 10959 10959 10961 10962 10962 10962 10963 10965 10968 10969 10969 10970 10970 10970 10969 10969 10969 10969 10970 10970 10971 10970 10970 10969 10969 10968 10967 10966 10966 10966 10966 10966 10967 10967 10968 10968 10968 10970 10971 10972 10973 10974 10975 10975 10976 10977 10977 10978 10978 10978
10924 10923 10923 10923 10922 10922 10922 10922 10922 10922 10923 10923 10923 10924 10925 10925 10926 10927 10927 10927 10929 10931 10933 10933 10933 10935 10936 10937 10940 10941 10941 10944 10947 10947 10949 10951 10952 10954 10955 10955 10956 10958 10959 10959 10960 10961 10963 10965 10966 10967 10968 10968 10967 10967 10966 10967 10969 10969 10969 10970 10969 10969 10969 10969 10967 10967 10966 10966 10966 10966 10967 10967 10968 10968 10968 10969 10970 10971 10972 10973 10974 10975 10975 10976 10976 10977 10977 10977
10917 10918 10918 10917 10917 10916 10916 10916 10916 10917 10917 10917 10918 10919 10919 10919 10920 10922 10921 10921 10924 10925 10926 10925 10925 10928 10928 10929 10932 10934 10933 10937 10940 10941 10942 10945 10947 10948 10950 10950 10951 10954 10955 10956 10957 10957 10959 10961 10964 10965 10966 10966 10964 10964 10964 10965 10968 10968 10968 10968 10969 10969 10969 10968 10968 10967 10967 10966 10966 10967 10967 10967 10967 10968 10968 10969 10970 10971 10972 10973 10974 10975 10975 10975 10976 10976 10976 10977
10912 10912 10912 10912 10912 10911 10911 10911 10911 10911 10912 10913 10913 10913 10914 10913 10915 10916 10915 10916 10919 10918 10920 10920 10918 10921 10922 10921 10924 10925 10926 10930 10933 10934 10936 10938 10940 10942 10943 10945 10947 10949 10951 10952 10952 10953 10955 10957 10961 10962 10962 10962 10961 10961 10961 10964 10966 10966 10966 10967 10968 10968 10968 10968 10968 10967 10967 10967 10967 10967 10967 10967 10967 10967 10968 10968 10969 10970 10971 10973 10974 10975 10975 10975 10976 10976 10976 10977
10907 10907 10906 10907 10907 10906 10906 10905 10906 10906 10907 10908 10908 10909 10909 10908 10911 10911 10909 10912 10914 10913 10915 10914 10913 10915 10916 10916 10916 10918 10920 10923 10925 10926 10929 10930 10932 10935 10937 10939 10941 10943 10945 10946 10948 10950 10952 10955 10958 10957 10956 10957 10958 10959 10959 10962 10964 10963 10963 10965 10966 10967 10967 10967 10967 10967 10967 10967 10967 10966 10966 10966 10966 10966 10967 10968 10968 10969 10971 10972 10974 10975 10975 10976 10977 10977 10977 10978
10902 10901 10901 10902 10902 10903 10901 10900 10901 10902 10902 10903 10904 10905 10905 10903 10907 10907 10906 10907 10908 10910 10910 10909 10909 10908 10910 10911 10910 10913 10914 10915 10918 10920 10921 10923 10925 10928 10930 10933 10936 10937 10938 10941 10945 10947 10950 10953 10951 10949 10950 10952 10955 10956 10957 10959 10961 10961 10961 10963 10964 10965 10966 10966 10967 10967 10967 10967 10967 10966 10966 10966 10966 10966 10967 10967 10968 10969 10971 10972 10974 10975 10976 10977 10978 10978 10978 10979
10896 10896 10896 10896 10897 10898 10897 10896 10896 10897 10897 10898 10898 10900 10900 10899 10902 10903 10903 10903 10902 10906 10906 10905 10906 10902 10903 10907 10905 10908 10909 10908 10913 10915 10914 10915 10918 10921 10923 10926 10929 10930 10932 10937 10940 10943 10947 10947 10942 10941 10944 10948 10952 10954 10955 10957 10958 10959 10959 10960 10962 10963 10964 10965 10965 10966 10966 10966 10966 10966 10966 10966 10966 10966 10967 10967 10968 10969 10970 10972 10974 10975 10976 10977 10978 10979 10979 10979
10891 10890 10890 10890 10891 10892 10893 10891 10891 10892 10892 10893 10893 10894 10894 10894 10897 10899 10900 10899 10897 10901 10902 10901 10902 10898 10897 10902 10902 10904 10903 10903 10907 10907 10907 10909 10912 10915 10917 10918 10921 10924 10928 10931 10934 10937 10941 10939 10935 10936 10939 10943 10949 10951 10952 10955 10956 10957 10957 10958 10959 10960 10962 10963 10964 10965 10965 10965 10965 10966 10966 10966 10966 10966 10967 10967 10968 10969 10970 10972 10974 10975 10976 10977 10978 10979 10980 10980
10886 10885 10884 10884 10884 10885 10887 10886 10886 10887 10887 10888 10887 10886 10888 10891 10892 10893 10895 10896 10892 10893 10898 10899 10897 10893 10893 10897 10899 10899 10898 10899 10900 10900 10902 10904 10905 10909 10911 10911 10915 10918 10921 10923 10927 10932 10934 10932 10930 10933 10936 10938 10944 10948 10950 10952 10954 10954 10954 10954 10955 10957 10959 10960 10961 10963 10964 10964 10964 10964 10965 10965 10966 10966 10966 10967 10968 10969 10970 10971 10973 10975 10976 10977 10978 10979 10980 10981
10880 10880 10878 10878 10878 10878 10880 10880 10880 10881 10881 10882 10881 10879 10883 10886 10887 10888 10889 10893 10890 10884 10892 10897 10892 10888 10889 10893 10894 10895 10895 10894 10892 10895 10899 10898 10898 10904 10906 10906 10908 10910 10912 10915 10920 10925 10926 10925 10926 10929 10931 10933 10937 10943 10946 10948 10950 10952 10951 10950 10951 10953 10955 10956 10959 10961 10962 10962 10962 10963 10964 10965 10965 10966 10966 10967 10967 10968 10970 10971 10972 10974 10975 10977 10978 10979 10980 10981
10874 10875 10873 10871 10872 10871 10872 10874 10873 10874 10876 10875 10873 10873 10877 10879 10881 10883 10884 10889 10887 10879 10884 10891 10887 10883 10884 10888 10889 10890 10891 10888 10887 10892 10895 10892 10893 10898 10901 10900 10901 10902 10905 10909 10914 10918 10918 10918 10921 10924 10926 10928 10931 10937 10941 10943 10946 10949 10948 10946 10946 10949 10952 10953 10955 10958 10959 10959 10961 10962 10963 10964 10965 10965 10966 10966 10967 10968 10969 10970 10971 10973 10974 10976 10977 10978 10979 10980
10867 10868 10867 10865 10866 10864 10863 10866 10867 10868 10870 10868 10865 10867 10870 10871 10874 10876 10877 10883 10883 10877 10879 10882 10881 10879 10879 10883 10885 10884 10884 10883 10885 10887 10887 10888 10890 10892 10894 10894 10895 10897 10899 10903 10908 10910 10910 10911 10916 10919 10921 10923 10926 10931 10934 10937 10942 10944 10942 10941 10941 10944 10947 10949 10951 10954 10956 10957 10959 10961 10961 10963 10964 10964 10965 10966 10967 10968 10968 10969 10970 10972 10973 10974 10976 10977 10978 10980
10859 10860 10861 10858 10859 10859 10855 10856 10861 10862 10861 10861 10859 10860 10863 10864 10867 10868 10871 10877 10878 10874 10875 10873 10872 10875 10875 10877 10879 10878 10878 10880 10882 10881 10881 10886 10885 10884 10888 10888 10890 10892 10894 10899 10902 10901 10902 10905 10909 10912 10915 10919 10922 10924 10925 10930 10937 10937 10935 10937 10938 10938 10942 10945 10947 10951 10952 10954 10957 10960 10960 10961 10962 10963 10965 10966 10966 10967 10967 10968 10969 10970 10972 10973 10974 10975 10976 10978
10851 10851 10853 10851 10850 10852 10848 10847 10852 10854 10853 10853 10852 10854 10856 10857 10860 10861 10864 10871 10870 10867 10869 10869 10866 10866 10867 10871 10873 10871 10872 10875 10877 10876 10877 10880 10880 10880 10882 10883 10885 10887 10889 10894 10895 10894 10896 10898 10901 10906 10910 10913 10915 10916 10917 10923 10931 10930 10929 10934 10934 10934 10937 10940 10943 10947 10948 10951 10956 10958 10959 10960 10960 10962 10963 10964 10965 10965 10966 10967 10968 10969 10971 10972 10972 10973 10975 10976
10842 10842 10845 10844 10842 10843 10841 10840 10842 10843 10844 10846 10846 10847 10848 10850 10852 10853 10859 10866 10862 10858 10862 10863 10860 10858 10859 10864 10866 10864 10865 10868 10870 10872 10874 10873 10874 10876 10877 10878 10881 10882 10883 10887 10890 10889 10889 10891 10894 10900 10904 10905 10906 10909 10911 10916 10922 10922 10923 10929 10931 10931 10933 10935 10940 10942 10945 10950 10954 10956 10957 10959 10959 10960 10961 10962 10963 10963 10965 10966 10967 10969 10970 10970 10971 10971 10973 10975
10833 10833 10835 10836 10835 10833 10831 10833 10834 10832 10833 10837 10838 10839 10840 10842 10843 10848 10856 10857 10851 10850 10853 10852 10852 10852 10854 10856 10858 10858 10859 10860 10862 10866 10870 10868 10868 10871 10872 10873 10876 10877 10878 10881 10883 10883 10884 10886 10889 10892 10895 10897 10899 10904 10906 10908 10911 10915 10919 10924 10927 10928 10928 10931 10936 10939 10943 10950 10952 10952 10954 10957 10958 10957 10958 10959 10960 10962 10963 10965 10966 10967 10968 10969 10969 10970 10972 10973
10823 10823 10824 10826 10827 10824 10820 10824 10826 10823 10823 10827 10829 10830 10832 10834 10838 10845 10849 10845 10841 10843 10842 10841 10843 10846 10848 10849 10851 10852 10852 10852 10854 10858 10864 10865 10864 10866 10867 10868 10869 10872 10874 10875 10876 10878 10880 10882 10883 10885 10888 10890 10894 10898 10899 10901 10904 10909 10914 10917 10920 10923 10925 10927 10932 10935 10940 10946 10948 10949 10950 10954 10955 10954 10954 10956 10957 10959 10961 10962 10964 10965 10966 10967 10967 10968 10970 10971
10813 10813 10813 10814 10816 10815 10811 10812 10815 10815 10815 10816 10818 10822 10823 10827 10836 10841 10838 10834 10833 10831 10828 10831 10835 10837 10841 10843 10843 10844 10845 10846 10847 10850 10856 10859 10860 10861 10862 10862 10863 10867 10868 10868 10870 10873 10875 10877 10878 10879 10880 10883 10887 10890 10891 10894 10897 10900 10905 10908 10912 10918 10921 10924 10928 10930 10934 10939 10943 10944 10945 10950 10952 10950 10951 10953 10953 10956 10958 10959 10961 10962 10964 10965 10966 10967 10969 10969
10802 10803 10802 10801 10802 10804 10803 10801 10803 10805 10804 10805 10808 10811 10814 10823 10831 10831 10826 10825 10823 10818 10816 10822 10825 10828 10834 10837 10836 10836 10838 10839 10839 10840 10847 10853 10856 10857 10858 10856 10857 10861 10862 10862 10866 10868 10870 10872 10871 10872 10874 10876 10878 10881 10884 10885 10888 10892 10895 10898 10904 10912 10918 10921 10922 10923 10927 10932 10935 10938 10941 10945 10947 10946 10946 10947 10950 10952 10955 10956 10958 10960 10962 10963 10964 10965 10966 10967
10790 10792 10791 10788 10787 10791 10792 10790 10789 10791 10793 10794 10797 10801 10809 10818 10820 10816 10815 10814 10812 10808 10806 10809 10814 10820 10825 10829 10831 10830 10829 10831 10831 10831 10837 10846 10850 10851 10853 10852 10850 10854 10856 10857 10860 10862 10864 10866 10865 10865 10869 10872 10871 10873 10877 10880 10883 10887 10887 10890 10901 10912 10916 10916 10915 10916 10920 10925 10929 10933 10937 10940 10941 10941 10941 10944 10948 10949 10951 10953 10955 10957 10959 10960 10962 10963 10963 10965
10778 10780 10778 10774 10774 10776 10778 10780 10778 10777 10780 10782 10785 10794 10803 10807 10805 10803 10804 10802 10802 10801 10796 10796 10804 10811 10814 10817 10822 10825 10823 10822 10822 10824 10828 10837 10844 10845 10847 10848 10846 10847 10851 10852 10852 10855 10859 10861 10859 10860 10864 10867 10867 10867 10871 10876 10879 10879 10881 10888 10899 10905 10905 10905 10907 10911 10913 10918 10925 10930 10933 10935 10936 10937 10938 10941 10945 10946 10948 10950 10951 10954 10956 10957 10958 10959 10960 10962
10766 10767 10763 10758 10760 10761 10763 10767 10766 10766 10768 10769 10776 10786 10792 10792 10790 10792 10792 10790 10791 10791 10788 10789 10794 10800 10803 10804 10808 10814 10818 10815 10813 10817 10820 10826 10836 10840 10839 10841 10841 10841 10843 10845 10846 10848 10852 10854 10854 10856 10859 10861 10862 10863 10866 10871 10872 10873 10879 10885 10887 10889 10893 10897 10902 10906 10908 10915 10923 10925 10927 10930 10932 10934 10936 10938 10941 10943 10945 10946 10947 10949 10952 10953 10954 10955 10956 10958
10754 10755 10749 10740 10742 10747 10749 10752 10753 10752 10753 10757 10768 10777 10777 10777 10777 10778 10778 10777 10778 10778 10780 10784 10784 10785 10790 10794 10797 10799 10804 10808 10808 10809 10812 10816 10826 10832 10832 10833 10836 10836 10836 10837 10840 10842 10844 10848 10850 10852 10854 10854 10856 10860 10863 10865 10865 10866 10870 10872 10873 10878 10885 10891 10897 10902 10906 10912 10917 10919 10922 10925 10928 10931 10933 10933 10936 10938 10939 10941 10944 10946 10948 10950 10950 10950 10952 10954
10741 10743 10736 10722 10724 10733 10734 10736 10737 10737 10739 10746 10757 10763 10761 10762 10763 10762 10762 10763 10764 10765 10770 10776 10774 10772 10777 10783 10787 10786 10787 10794 10800 10801 10803 10807 10815 10822 10824 10825 10827 10829 10829 10829 10833 10835 10835 10840 10844 10846 10849 10850 10851 10858 10860 10858 10856 10855 10857 10861 10866 10872 10876 10882 10891 10897 10900 10902 10906 10912 10917 10920 10924 10928 10929 10929 10930 10931 10933 10937 10939 10941 10943 10946 10946 10945 10947 10950
10727 10729 10721 10705 10707 10717 10717 10718 10721 10723 10727 10733 10740 10744 10746 10747 10748 10748 10749 10749 10750 10753 10759 10763 10761 10763 10768 10769 10773 10776 10774 10778 10786 10791 10794 10799 10805 10811 10815 10818 10819 10820 10821 10822 10825 10827 10828 10833 10837 10838 10842 10846 10849 10853 10853 10849 10848 10848 10850 10857 10863 10867 10869 10872 10881 10889 10892 10893 10900 10908 10913 10916 10920 10922 10922 10924 10925 10925 10928 10932 10935 10937 10938 10941 10943 10943 10943 10945
10710 10713 10706 10689 10688 10698 10700 10701 10706 10709 10713 10718 10723 10726 10728 10730 10731 10733 10735 10735 10736 10741 10746 10748 10748 10753 10757 10757 10759 10764 10763 10764 10770 10777 10784 10789 10795 10800 10804 10809 10812 10810 10811 10815 10818 10820 10821 10826 10830 10830 10835 10841 10845 10847 10845 10843 10844 10845 10846 10852 10857 10860 10862 10862 10870 10883 10887 10889 10896 10903 10908 10912 10914 10914 10914 10916 10918 10921 10924 10927 10931 10932 10932 10935 10939 10941 10940 10940
10692 10696 10691 10670 10664 10678 10684 10685 10690 10694 10696 10702 10707 10707 10707 10710 10714 10718 10719 10719 10723 10728 10728 10731 10738 10742 10743 10746 10747 10746 10748 10752 10756 10762 10771 10778 10784 10789 10792 10796 10802 10803 10802 10807 10812 10813 10811 10815 10823 10825 10828 10833 10836 10840 10842 10839 10839 10842 10843 10846 10848 10853 10856 10857 10866 10876 10880 10883 10888 10893 10899 10904 10906 10907 10906 10907 10911 10916 10919 10922 10925 10926 10925 10929 10934 10937 10937 10936
10672 10677 10673 10650 10638 10654 10666 10668 10673 10674 10676 10684 10688 10687 10688 10692 10696 10700 10703 10704 10709 10714 10712 10716 10725 10726 10727 10732 10733 10731 10732 10737 10744 10749 10755 10764 10771 10777 10781 10782 10788 10794 10796 10798 10803 10806 10804 10806 10816 10821 10821 10823 10827 10834 10838 10837 10835 10838 10841 10840 10841 10846 10850 10852 10857 10863 10866 10872 10879 10882 10891 10899 10902 10900 10897 10898 10902 10908 10913 10916 10918 10918 10920 10922 10926 10931 10933 10932
10651 10655 10653 10631 10617 10628 10643 10650 10654 10652 10651 10660 10666 10668 10671 10674 10678 10684 10686 10688 10692 10696 10697 10702 10709 10709 10711 10714 10715 10716 10718 10722 10732 10738 10741 10748 10757 10764 10771 10772 10774 10781 10789 10792 10793 10796 10799 10799 10805 10813 10816 10816 10820 10827 10832 10834 10834 10835 10835 10834 10834 10838 10841 10842 10846 10849 10854 10864 10870 10874 10886 10895 10896 10891 10888 10890 10895 10900 10906 10910 10910 10912 10914 10914 10917 10923 10926 10927
10629 10632 10630 10613 10599 10604 10617 10626 10631 10627 10626 10632 10641 10649 10652 10654 10661 10666 10667 10671 10676 10679 10679 10685 10692 10692 10693 10695 10696 10700 10703 10707 10718 10725 10727 10734 10742 10749 10758 10763 10763 10767 10777 10785 10785 10786 10792 10794 10795 10803 10811 10812 10814 10819 10822 10825 10829 10830 10828 10827 10828 10830 10832 10834 10836 10839 10848 10858 10861 10868 10881 10888 10886 10882 10881 10884 10891 10895 10898 10900 10903 10905 10906 10906 10909 10915 10919 10920
10604 10607 10604 10592 10582 10582 10590 10597 10601 10600 10600 10605 10614 10625 10631 10636 10642 10646 10648 10654 10659 10658 10657 10665 10674 10674 10674 10676 10679 10683 10687 10691 10701 10710 10714 10721 10729 10734 10740 10749 10754 10756 10764 10774 10777 10777 10783 10789 10791 10796 10803 10808 10809 10810 10809 10813 10821 10825 10823 10822 10824 10825 10826 10827 10829 10836 10846 10850 10851 10860 10872 10875 10875 10876 10877 10880 10886 10889 10888 10889 10894 10898 10897 10898 10904 10909 10912 10914
10573 10577 10574 10569 10564 10560 10561 10565 10569 10571 10574 10578 10586 10598 10609 10616 10620 10624 10628 10633 10634 10631 10635 10648 10659 10656 10651 10654 10661 10669 10674 10675 10683 10694 10702 10709 10716 10718 10723 10736 10746 10750 10755 10761 10765 10770 10774 10782 10790 10791 10792 10799 10803 10802 10800 10802 10813 10820 10819 10817 10819 10820 10822 10823 10827 10834 10839 10839 10844 10854 10860 10862 10867 10872 10872 10873 10875 10877 10879 10882 10886 10889 10890 10892 10898 10903 10906 10908
10539 10542 10540 10539 10539 10535 10531 10531 10534 10539 10545 10549 10555 10568 10581 10587 10592 10598 10602 10604 10604 10605 10614 10631 10638 10633 10631 10638 10648 10658 10661 10661 10667 10678 10689 10697 10705 10708 10712 10724 10735 10742 10748 10751 10753 10760 10766 10774 10784 10786 10784 10789 10794 10796 10794 10794 10802 10810 10812 10813 10814 10815 10817 10820 10824 10827 10826 10828 10838 10845 10846 10852 10860 10864 10863 10865 10866 10867 10870 10876 10878 10879 10881 10885 10890 10895 10899 10901
10503 10505 10504 10505 10507 10505 10500 10497 10499 10504 10513 10519 10523 10534 10546 10554 10560 10569 10574 10575 10576 10578 10588 10604 10610 10611 10617 10625 10630 10635 10642 10647 10654 10666 10679 10688 10696 10700 10703 10711 10719 10729 10738 10740 10740 10749 10757 10763 10772 10778 10778 10780 10784 10789 10789 10788 10792 10800 10805 10809 10810 10811 10814 10815 10818 10819 10817 10822 10830 10832 10833 10842 10851 10854 10854 10855 10858 10858 10860 10867 10871 10871 10872 10877 10882 10887 10891 10894
10470 10470 10469 10469 10471 10471 10469 10468 10468 10471 10480 10488 10491 10497 10509 10519 10526 10534 10539 10543 10547 10550 10558 10574 10586 10592 10600 10605 10606 10612 10624 10636 10645 10656 10668 10679 10686 10689 10693 10699 10706 10714 10724 10726 10728 10738 10746 10751 10759 10767 10770 10773 10777 10780 10781 10783 10784 10788 10796 10804 10805 10807 10809 10809 10810 10812 10813 10817 10821 10821 10825 10833 10842 10846 10845 10843 10847 10852 10855 10859 10864 10867 10867 10869 10874 10879 10883 10886
10442 10440 10439 10441 10443 10442 10441 10441 10442 10443 10450 10458 10461 10465 10475 10485 10492 10499 10505 10513 10521 10525 10531 10546 10562 10572 10578 10582 10586 10594 10608 10623 10635 10644 10652 10667 10676 10677 10683 10692 10695 10701 10710 10712 10714 10723 10734 10741 10748 10753 10759 10766 10770 10770 10773 10777 10776 10777 10789 10800 10800 10799 10803 10804 10804 10805 10807 10811 10813 10814 10819 10825 10830 10835 10835 10833 10836 10844 10849 10851 10855 10862 10864 10862 10865 10871 10875 10879
10419 10416 10416 10418 10419 10417 10417 10419 10420 10421 10426 10432 10435 10440 10448 10457 10464 10470 10479 10488 10496 10501 10504 10519 10539 10551 10557 10563 10568 10576 10589 10605 10622 10631 10637 10652 10665 10665 10671 10682 10683 10686 10696 10700 10700 10707 10720 10731 10737 10741 10749 10759 10761 10762 10764 10764 10764 10773 10787 10792 10790 10791 10796 10800 10800 10798 10799 10803 10806 10808 10813 10814 10813 10818 10826 10829 10830 10835 10840 10842 10848 10857 10860 10856 10857 10862 10869 10873